Weather History for Great Falls, MT

Change the Weather History Date:

Thursday, July 3, 2014

  Actual Average Record
Temperature  
Mean Temperature 75 °F 65 °F  
Max Temperature 91 °F 80 °F 98 °F (1985)
Min Temperature 59 °F 49 °F 41 °F (1971)
Degree Days  
Heating Degree Days 0 3  
Month to date heating degree days 3 9  
Since 1 June heating degree days 226 200  
Since 1 July heating degree days 3 9  
Cooling Degree Days 10 2  
Month to date cooling degree days 14 6  
Year to date cooling degree days 14 45  
Since 1 June cooling degree days 14 38  
Growing Degree Days 26 (Base 50)    
Moisture  
Dew Point 51 °F    
Average Humidity 46    
Maximum Humidity 69    
Minimum Humidity 23    
Precipitation  
Precipitation 0.00 in 0.06 in 1.30 in (1902)
Month to date precipitation 0.00 0.18  
Year to date precipitation 11.29 8.44  
Snow  
Snow 0.00 in 0.00 in T in (1966)
Month to date snowfall 0.0 0.0  
Since 1 June snowfall 0.0 0.3  
Since 1 July snowfall 0.0 0.0  
Snow Depth 0.00 in    
Sea Level Pressure  
Sea Level Pressure 29.82 in    
Wind  
Wind Speed 6 mph (SSE)    
Max Wind Speed 15 mph    
Max Gust Speed 18 mph    
Visibility 10 miles    
Events      
T = Trace of Precipitation, MM = Missing Value Source: NWS Daily Summary

Daily Weather History Graph

Daily Weather History Graph

Search for Another Location

Airport:

Trip Planner

Search our weather history database for the weather conditions in past years. The results will help you decide how hot, cold, wet, or windy it might be!

Date:

Astronomy

Jul. 03, 2014 Rise Set
Actual Time 5:33 AM MDT 9:25 PM MDT
Civil Twilight 4:53 AM MDT 10:05 PM MDT
Nautical Twilight 3:58 AM MDT 11:00 PM MDT
Astronomical Twilight 2:36 AM MDT 12:21 AM MDT
Moon 12:03 PM MDT (7/3) No Moon Set
Length of Visible Light 17h 11m
Length of Day
15h 51m
Waxing Crescent, 33% of the Moon is Illuminated
Jul 3
Waxing Crescent
Jul 5
First Quarter
Jul 12
Full
Jul 18
Last Quarter
Jul 26
New

Hourly Weather History & Observations

Time (MDT) Temp. Heat Index Dew Point Humidity Pressure Visibility Wind Dir Wind Speed Gust Speed Precip Events Conditions
12:53 AM 66.9 °F - 50.0 °F 54% 29.86 in 10.0 mi South 10.4 mph - N/A   Clear
1:53 AM 64.0 °F - 51.1 °F 63% 29.86 in 10.0 mi SSW 10.4 mph - N/A   Clear
2:53 AM 68.0 °F - 48.0 °F 49% 29.85 in 10.0 mi SSW 10.4 mph - N/A   Clear
3:53 AM 61.0 °F - 50.0 °F 67% 29.84 in 10.0 mi Calm Calm - N/A   Clear
4:53 AM 62.1 °F - 50.0 °F 65% 29.84 in 10.0 mi SE 5.8 mph - N/A   Clear
5:53 AM 68.0 °F - 48.0 °F 49% 29.82 in 10.0 mi SSE 8.1 mph - N/A   Clear
6:53 AM 66.0 °F - 52.0 °F 60% 29.84 in 10.0 mi Calm Calm - N/A   Clear
7:53 AM 68.0 °F - 53.6 °F 60% 29.94 in 10.0 mi WSW 3.5 mph - N/A   Clear
8:53 AM 73.9 °F - 52.0 °F 46% 29.85 in 10.0 mi South 5.8 mph - N/A   Clear
9:53 AM 78.1 °F - 52.0 °F 40% 29.84 in 10.0 mi South 10.4 mph - N/A   Clear
10:53 AM 82.0 °F - 51.1 °F 34% 29.83 in 10.0 mi Variable 3.5 mph - N/A   Clear
11:53 AM 84.9 °F - 51.1 °F 31% 29.83 in 10.0 mi Variable 6.9 mph - N/A   Clear
12:53 PM 87.8 °F - 51.8 °F 29% 29.94 in 10.0 mi Variable 6.9 mph - N/A   Clear
1:53 PM 88.0 °F - 50.0 °F 27% 29.83 in 10.0 mi NW 8.1 mph - N/A   Clear
2:53 PM 89.1 °F - 48.9 °F 25% 29.80 in 10.0 mi North 5.8 mph - N/A   Clear
3:53 PM 89.1 °F - 48.0 °F 24% 29.79 in 10.0 mi East 6.9 mph - N/A   Clear
4:53 PM 90.0 °F - 46.0 °F 22% 29.78 in 10.0 mi East 3.5 mph - N/A   Clear
5:53 PM 88.0 °F - 48.9 °F 26% 29.75 in 10.0 mi ESE 4.6 mph - N/A   Clear
6:53 PM 86.0 °F - 48.0 °F 27% 29.75 in 10.0 mi SE 4.6 mph - N/A   Clear
7:53 PM 82.0 °F 81.7 °F 57.0 °F 42% 29.77 in 10.0 mi Calm Calm - N/A   Scattered Clouds
8:53 PM 78.1 °F - 53.1 °F 42% 29.77 in 10.0 mi East 8.1 mph - N/A   Clear
9:53 PM 71.1 °F - 55.0 °F 57% 29.79 in 10.0 mi East 5.8 mph - N/A   Clear
10:53 PM 66.9 °F - 55.9 °F 68% 29.81 in 10.0 mi Calm Calm - N/A   Clear
11:53 PM 68.0 °F - 54.0 °F 61% 29.80 in 10.0 mi South 11.5 mph - N/A   Clear